Weather History for Youngstown, OH

Change the Weather History Date:

Friday, September 6, 2013

  Actual Average Record
Temperature  
Mean Temperature 58 °F 65 °F  
Max Temperature 73 °F 76 °F 93 °F (1954)
Min Temperature 43 °F 55 °F 38 °F (1962)
Degree Days  
Heating Degree Days 7 2  
Month to date heating degree days 17 12  
Since 1 July heating degree days 55 50  
Cooling Degree Days 0 3  
Month to date cooling degree days 17 18  
Year to date cooling degree days 566 504  
Growing Degree Days 8 (Base 50)    
Moisture  
Dew Point 45 °F    
Average Humidity 64    
Maximum Humidity 93    
Minimum Humidity 34    
Precipitation  
Precipitation 0.00 in 0.12 in 1.13 in (1983)
Month to date precipitation 0.01 0.74  
Year to date precipitation 27.23 26.96  
Snow  
Snow 0.00 in 0.00 in - ()
Month to date snowfall 0.0 0.0  
Since 1 July snowfall 0.0 0.0  
Since 1 September snowfall 0.0 0.0  
Snow Depth 0.00 in    
Sea Level Pressure  
Sea Level Pressure 30.23 in    
Wind  
Wind Speed 3 mph (ESE)    
Max Wind Speed 8 mph    
Max Gust Speed 10 mph    
Visibility 10 miles    
Events      
T = Trace of Precipitation, MM = Missing Value Source: NWS Daily Summary

Daily Weather History Graph

Daily Weather History Graph

Search for Another Location

Airport:

Trip Planner

Search our weather history database for the weather conditions in past years. The results will help you decide how hot, cold, wet, or windy it might be!

Date:

Astronomy

Sep. 06, 2013 Rise Set
Actual Time 6:54 AM EDT 7:46 PM EDT
Civil Twilight 6:26 AM EDT 8:14 PM EDT
Nautical Twilight 5:52 AM EDT 8:48 PM EDT
Astronomical Twilight 5:18 AM EDT 9:22 PM EDT
Moon 8:06 AM EDT (9/6) 8:08 PM EDT (9/6)
Length of Visible Light 13h 48m
Length of Day
12h 52m
New Moon, 1% of the Moon is Illuminated
Sep 6
New Moon
Sep 12
First Quarter
Sep 19
Full
Sep 26
Last Quarter
Oct 4
New

Hourly Weather History & Observations

Time (EDT) Temp. Windchill Dew Point Humidity Pressure Visibility Wind Dir Wind Speed Gust Speed Precip Events Conditions
12:51 AM 48.9 °F - 46.0 °F 90% 30.24 in 10.0 mi Calm Calm - N/A   Clear
1:51 AM 48.9 °F - 46.9 °F 93% 30.24 in 10.0 mi Calm Calm - N/A   Clear
2:51 AM 48.0 °F - 46.0 °F 93% 30.25 in 10.0 mi Calm Calm - N/A   Clear
3:51 AM 46.0 °F 43.1 °F 44.1 °F 93% 30.25 in 10.0 mi East 5.8 mph - N/A   Clear
4:51 AM 46.0 °F 43.9 °F 45.0 °F 96% 30.27 in 10.0 mi East 4.6 mph - N/A   Clear
5:51 AM 45.0 °F 41.8 °F 43.0 °F 93% 30.27 in 10.0 mi East 5.8 mph - N/A   Clear
6:51 AM 45.0 °F 42.6 °F 43.0 °F 93% 30.28 in 10.0 mi East 4.6 mph - N/A   Partly Cloudy
7:51 AM 48.0 °F - 45.0 °F 89% 30.30 in 10.0 mi East 5.8 mph - N/A   Partly Cloudy
8:51 AM 53.1 °F - 46.9 °F 80% 30.30 in 10.0 mi ESE 5.8 mph - N/A   Partly Cloudy
9:51 AM 57.9 °F - 46.0 °F 65% 30.30 in 10.0 mi ESE 4.6 mph - N/A   Partly Cloudy
10:51 AM 62.1 °F - 45.0 °F 53% 30.29 in 10.0 mi SSW 3.5 mph - N/A   Partly Cloudy
11:51 AM 64.0 °F - 44.1 °F 48% 30.29 in 10.0 mi East 3.5 mph - N/A   Scattered Clouds
12:51 PM 66.9 °F - 39.9 °F 37% 30.27 in 10.0 mi Variable 4.6 mph - N/A   Scattered Clouds
1:51 PM 68.0 °F - 42.1 °F 39% 30.25 in 10.0 mi Calm Calm - N/A   Scattered Clouds
2:51 PM 70.0 °F - 44.1 °F 39% 30.22 in 10.0 mi NNE 4.6 mph - N/A   Mostly Cloudy
3:51 PM 71.1 °F - 41.0 °F 34% 30.20 in 10.0 mi Calm Calm - N/A   Mostly Cloudy
4:51 PM 72.0 °F - 43.0 °F 35% 30.19 in 10.0 mi SSE 4.6 mph - N/A   Mostly Cloudy
5:51 PM 71.1 °F - 41.0 °F 34% 30.18 in 10.0 mi Calm Calm - N/A   Mostly Cloudy
6:51 PM 64.9 °F - 48.9 °F 56% 30.19 in 10.0 mi Calm Calm - N/A   Mostly Cloudy
7:51 PM 59.0 °F - 48.9 °F 69% 30.17 in 10.0 mi Calm Calm - N/A   Mostly Cloudy
8:51 PM 54.0 °F - 50.0 °F 86% 30.17 in 10.0 mi East 3.5 mph - N/A   Mostly Cloudy
9:51 PM 53.1 °F - 48.9 °F 86% 30.16 in 10.0 mi Calm Calm - N/A   Mostly Cloudy
10:51 PM 51.1 °F - 46.9 °F 86% 30.14 in 10.0 mi SE 4.6 mph - N/A   Scattered Clouds
11:51 PM 52.0 °F - 48.0 °F 86% 30.14 in 10.0 mi ESE 3.5 mph - N/A   Scattered Clouds